www.pogodaiklimat.ru
ПОГОДА в Сиребоне
Время
(UTC), дата
09 27.05
12 27.05
15 27.05
18 27.05
21 27.05
00 28.05
03 28.05
06 28.05
09 28.05
12 28.05
15 28.05
18 28.05
21 28.05
00 29.05
03 29.05
06 29.05
09 29.05
12 29.05
15 29.05
18 29.05
21 29.05
00 30.05
03 30.05
06 30.05
09 30.05
12 30.05
15 30.05
18 30.05
21 30.05
00 31.05
03 31.05
06 31.05
09 31.05
12 31.05
15 31.05
18 31.05
21 31.05
00 1.06
03 1.06
06 1.06
09 1.06
12 1.06
15 1.06
18 1.06
21 1.06
00 2.06
03 2.06
06 2.06
09 2.06
12 2.06
15 2.06
18 2.06
21 2.06
00 3.06
03 3.06
06 3.06
Ветер
(напр.,м/с)
Видим. Явления Облачность Т
(С)
Тd
(С)
f
(%)
Тe
(С)
Тes
(С)
Комфортность P
(гПа)
Po
(гПа)
Тmin
(С)
Tmax
(С)
R
(мм)
R24
(мм)
S
(см)
Ю 1 9000 м {гроза} 8/4 570 м
[Cu med, cong Ac As Ci fib]
+31.8 +26.4 73 +48 +50 опасность
перегрева
1009.3 1004.3
ЮВ 1 6000 м гроза, ливневой дождь 10/5
[Cb cap Ac As Ci fib]
+29.5 +27.0 86 +46 +46 опасность
перегрева
1011.1 1006.1 +32.2
СЗ 1 5000 м гроза, ливневой дождь 10/4
[Cb cap As op]
+23.9 +23.5 98 +32 +32 очень
душно
1013.4 1008.2 75
З 1 6000 м в посл. час дождь {гроза} 10/3 570 м
[Sc As op]
+24.4 +24.1 98 +34 +34 очень
душно
1011.7 1006.6 3
штиль 0 7000 м 9/4 600 м
[Sc As trans Ci fib]
+24.3 +23.9 98 +33 +33 очень
душно
1010.8 1005.8
штиль 0 10 км 10/5 600 м
[Sc Ac As Ci fib]
+24.5 +24.1 98 +34 +34 очень
душно
1012.2 1007.1 +23.9 78
В 1 10 км 10/5 600 м
[Sc As trans]
+27.6 +24.3 82 +39 +42 очень
душно
1013.3 1008.3
В 1 9000 м 10/5 600 м
[Sc As trans]
+30.8 +26.0 76 +46 +50 опасность
перегрева
1010.7 1005.6
штиль 0 9000 м 10/5 600 м
[Sc As op]
+29.3 +26.0 82 +44 +44 опасность
перегрева
1009.0 1004.0
штиль 0 9000 м 10/4 600 м
[Sc As op Ci fib]
+28.2 +26.9 93 +44 +44 опасность
перегрева
1011.4 1006.3 +31.2
штиль 0 9000 м 10/4 600 м
[Sc As op Ci fib]
+27.0 +26.2 95 +41 +41 опасность
перегрева
1012.2 1007.2
штиль 0 8000 м 6/1 600 м
[Sc As trans Ci fib]
+26.7 +25.8 95 +40 +40 очень
душно
1011.3 1006.3
штиль 0 8000 м 6/3 600 м
[Sc As trans Ci fib]
+26.0 +25.2 95 +37 +37 очень
душно
1011.0 1006.0
штиль 0 10 км 5/1 600 м
[Sc As trans Ci fib]
+25.4 +24.9 97 +36 +37 очень
душно
1012.4 1007.3 +24.5
ЮВ 1 10 км 6/1 600 м
[Cu hum Ac trans Ci fib]
+30.8 +26.0 76 +46 +56 опасность
перегрева
1012.5 1007.5
З 2 10 км 8/5 600 м
[Cu med, cong As trans Ci fib]
+33.6 +27.3 70 +53 +58 опасность
перегрева
1009.9 1004.8
ЮЗ 5 6000 м гроза, ливневой дождь 10/8 500 м
[Cb cap As op Ci ing]
+25.0 +23.6 92 +34 +34 очень
душно
1010.2 1005.2 9
штиль 0 7000 м в посл. час гроза {дождь} 10/6 570 м
[Sc As op]
+25.2 +24.5 96 +35 +35 очень
душно
1012.1 1007.0 +34.0 1
штиль 0 7000 м {дождь} 10/5 570 м
[Sc As op]
+25.2 +24.8 98 +36 +36 очень
душно
1012.6 1007.5 0.5
штиль 0 8000 м 8/3 600 м
[Sc As trans Ci fib]
+25.0 +24.5 97 +35 +35 очень
душно
1012.1 1007.0 0.5
штиль 0 8000 м 8/3 600 м
[Sc As trans Ci fib]
+24.4 +23.8 96 +33 +33 очень
душно
1011.5 1006.4
Ю 1 10 км 3/1 600 м
[Sc Ci fib]
+24.1 +23.7 98 +33 +34 очень
душно
1012.6 1007.6 +24.0 11
В 2 10 км 4/3 600 м
[Sc Ci fib]
+30.6 +25.8 76 +46 +55 опасность
перегрева
1012.2 1007.1
СВ 3 10 км 4/3 600 м
[Cu med, cong Ci fib]
+32.6 +25.7 67 +48 +56 опасность
перегрева
1009.6 1004.6
В 2 10 км 6/4 600 м
[Cu med, cong Cs]
+32.1 +25.7 69 +47 +49 опасность
перегрева
1009.6 1004.5
СВ 1 8000 м гроза без осадков 6/4
[Cb cap Cs]
+29.4 +26.8 86 +46 +46 опасность
перегрева
1011.1 1006.0 +33.2
штиль 0 8000 м 8/4 600 м
[Cu hum As trans Ci fib]
+28.0 +26.4 91 +43 +43 опасность
перегрева
1012.8 1007.8
штиль 0 9000 м 8/4 600 м
[Cu hum As trans Ci fib]
+27.0 +26.2 95 +41 +41 опасность
перегрева
1012.6 1007.6
штиль 0 8000 м 6/3 600 м
[Cu hum As trans Ci fib]
+25.8 +25.0 95 +37 +37 очень
душно
1011.8 1006.7
штиль 0 9000 м 10/4 600 м
[Cu hum As trans Ci fib]
+25.4 +24.6 95 +36 +36 очень
душно
1013.2 1008.2 +24.0
СЗ 1 10 км 9/4 600 м
[Cu med, cong Ac As Ci fib]
+29.2 +26.5 85 +45 +50 опасность
перегрева
1014.1 1008.7
ЮВ 1 10 км 8/5 570 м
[Cu med, cong As trans Ci fib]
+32.5 +26.7 72 +50 +56 опасность
перегрева
1011.3 1006.3
ЮВ 3 10 км 8/5 540 м
[Cu med, cong Ac trans Ci fib]
+32.0 +26.2 71 +48 +49 опасность
перегрева
1009.9 1004.8
В 2 8000 м зарница 6/5 540 м
[Cb cap Ac trans Ci fib]
+29.2 +26.3 84 +44 +44 опасность
перегрева
1012.0 1006.9 +33.8
З 2 8000 м 6/4 600 м
[Sc Ac As Ci fib]
+28.0 +25.6 87 +41 +41 опасность
перегрева
1013.6 1008.5
штиль 0 7000 м 6/4 600 м
[Sc Ac As Ci fib]
+26.2 +24.6 91 +37 +37 очень
душно
1012.1 1007.0
штиль 0 7000 м 4/0
[Ci fib]
+25.0 +23.9 94 +34 +34 очень
душно
1010.9 1005.8
В 1 7000 м 4/0
[Ci fib]
+24.6 +23.5 94 +33 +35 очень
душно
1012.6 1007.5 +24.6
Ю 1 10 км 6/3 600 м
[Sc Ac trans Ci fib]
+30.4 +25.3 74 +44 +53 опасность
перегрева
1013.2 1008.1
В 3 10 км 8/4 600 м
[Sc As trans Ci fib]
+32.2 +25.0 66 +46 +51 опасность
перегрева
1010.9 1005.8
ЮВ 1 10 км 9/3 600 м
[Cu med, cong Ac As Ci]
+31.3 +26.7 77 +49 +50 опасность
перегрева
1008.8 1003.7
ЮВ 1 9000 м 8/3 600 м
[Cu hum Ac trans Ci fib]
+29.0 +26.6 87 +45 +45 опасность
перегрева
1010.5 1005.4 +32.8
штиль 0 9000 м 8/3 600 м
[Cu hum Ac trans Ci fib]
+27.1 +26.2 95 +41 +41 опасность
перегрева
1013.7 1008.6
штиль 0 9000 м гроза без осадков 9/4
[Cb cap As op Ci fib]
+26.8 +25.7 94 +40 +40 очень
душно
1012.1 1007.0
штиль 0 6000 м слаб. ливневой дождь, в посл. час гроза 10/5
[Cb cap As op]
+24.6 +23.9 96 +34 +34 очень
душно
1011.3 1006.2 2
В 1 10 км {гроза, дождь} 9/3 600 м
[Cu hum Ac trans Ci fib]
+24.6 +24.2 98 +34 +35 очень
душно
1012.1 1007.0 +24.3 0.0
В 1 9000 м 9/9 600 м
[]
+28.6 +26.2 87 +43 +45 опасность
перегрева
1013.4 1008.3
В 2 9000 м 6/3 600 м
[Cu hum As op Ci fib]
+31.4 +26.7 76 +48 +57 опасность
перегрева
1009.7 1004.6
СВ 3 10 км 8/1 600 м
[Cu med, cong As trans Cs]
+30.9 +26.3 77 +47 +49 опасность
перегрева
1008.1 1003.0
В 1 8000 м 8/1 600 м
[Sc Cs]
+28.2 +26.3 89 +43 +43 опасность
перегрева
1010.3 1005.2 +32.0
штиль 0 9000 м 8/1 600 м
[Cu hum Ac trans Cs]
+27.4 +26.3 94 +42 +42 опасность
перегрева
1012.5 1007.4
штиль 0 8000 м гроза без осадков 8/4
[Cb calv Ac As Ci fib]
+26.3 +25.8 97 +39 +39 очень
душно
1011.6 1006.5
З 1 5000 м слаб. дождь {гроза} 10/4
[Cb calv Ac As Ci fib]
+24.7 +24.0 96 +34 +34 очень
душно
1010.8 1005.7 13
штиль 0 9000 м {дождь} 8/4 570 м
[Cu med, cong Ac As Cs]
+24.6 +24.1 97 +34 +35 очень
душно
1011.7 1006.7 +24.2 0.0
В 4 10 км 6/4 600 м
[Cu hum Ci fib]
+30.4 +25.6 76 +45 +50 опасность
перегрева
1012.2 1007.2
В 4 10 км {дождь} 9/4 600 м
[Cu hum As trans Ci fib]
+30.4 +25.3 74 +44 +48 опасность
перегрева
1010.7 1005.7 0.0
Местоположение метеостанции Сиребон (Индонезия): широта -6.75 долгота 108.26 высота над уровнем моря 50 м.
В архиве по умолчанию представлена погода в Сиребоне за последнюю неделю. Архивные данные за месяц целиком и за предыдущие месяцы, начиная с января 2011 года, Вы можете получить, выбрав интересующий диапазон дат из раскрывающегося списка и нажав кнопку "Найти!".
*Определитесь, кто Вы:
Внимание! Время в таблицах - всемирное. Для получения местного времени необходимо прибавить поправку, которая равна 7 ч.
Смотрите также архив погоды в соседних городах и на ближайших метеорологических станциях:
Партнеры нашего сайта:      
Пояснения к столбцам:
  • Ветер - указаны скорость ветра в м/с - средняя за 10 мин, порывы в срок и между сроками (в фигурных скобках) и направление, откуда дует ветер: С - северный,
  • СВ - северо-восточный, В - восточный, ЮВ - юго-восточный, Ю - южный, ЮЗ - юго-западный, З - западный, СЗ - северо-западный.
  • Видимость - горизонтальная дальность видимости в метрах или километрах. При видимости от 1 до 10 км при отсутствии осадков обычно наблюдается дымка, при ухудшении видимости до 1 км и менее - туман. В сухую погоду видимость может ухудшаться дымом, пылью или мглою.
  • Явления - указаны атмосферные явления, наблюдавшиеся в срок или в последний час перед сроком; фигурными скобками обозначены явления, наблюдавшиеся между сроками (за 1-3 часа до срока); квадратными скобками обозначены град или гололедные отложения с указанием их диаметра в мм.
  • Облачность - указаны через наклонную черту общая и нижняя облачность в баллах и высота нижней границы облаков в метрах; квадратными скобками обозначены формы облаков: Ci - перистые, Cs - перисто-слоистые, Cc - перисто-кучевые, Ac - высококучевые, As - высокослоистые, Sc - слоисто-кучевые, Ns - слоисто-дождевые, Cu - кучевые, Cb - кучево-дождевые. Подробнее классификацию облаков см. в Атласе облаков (PDF).
  • T - Температура воздуха - температура, измеренная на высоте 2 м над землей.
  • Td - Температура точки росы - температура, при понижении до которой содержащийся в воздухе водяной пар достигнет насыщения.
  • f - Относительная влажность воздуха - влажноcть воздуха, измеренная на высоте 2 м над землей.
  • Te - Эффективная температура - температура, которую ощущает одетый по сезону человек в тени. Характеристика душности погоды. При расчете учитывается влияние влажности воздуха и скорости ветра на теплоощущения человека.
  • Tes - Эффективная температура на солнце - температура, которую ощущает человек, с поправкой на солнечный нагрев. Характеристика знойности погоды. Зависит от высоты солнца над горизонтом, облачности и скорости ветра. Ночью, в пасмурную погоду, а также при ветре 12 м/с и более поправка равна нулю.
  • P - Атмосферное давление - приведенное к уровню моря атмосферное давление.
  • Po - Атмосферное давление - измеренное на уровне метеостанции атмосферное давление.
  • Tmin - Минимальная температура - минимум температуры воздуха на высоте 2 м над землей.
  • Tmax - Максимальная температура - максимум температуры воздуха на высоте 2 м над землей.
  • R - Количество осадков - Количество выпавших осадков за период времени, мм. При наведении курсора мыши на число - период времени, за который выпало указанное количество осадков.
  • R24 - Количество осадков - Количество выпавших осадков за 24 часа, мм.
  • S - Снежный покров - Высота снежного покрова, см. При наведении курсора мыши на число - состояние снежного покрова и степень покрытия местности в баллах.